Weather History for Lancaster, CA

Change the Weather History Date:

Wednesday, November 7, 2012

  Actual Average Record
Temperature  
Mean Temperature 17 °C 13 °C  
Max Temperature 29 °C 22 °C 29 °C (2006)
Min Temperature 4 °C 4 °C -2 °C (1959)
Degree Days  
Heating Degree Days 3    
Month to date heating degree days 26  
Since 1 July heating degree days 118  
Cooling Degree Days 0    
Month to date cooling degree days 0  
Year to date cooling degree days 2282  
Growing Degree Days 12 (Base 50)    
Moisture  
Dew Point 0 °C    
Average Humidity 33    
Maximum Humidity 52    
Minimum Humidity 13    
Precipitation  
Precipitation 0.00 mm 0.51 mm 3.58 mm (1966)
Month to date precipitation 0.00 0.11  
Year to date precipitation 1.74 5.80  
Since 1 July precipitation 0.04 0.89  
Snow  
Snow 0.00 cm - 0.00 cm ()
Month to date snowfall 0.0  
Since 1 July snowfall 0.0  
Since 1 September snowfall 0.0  
Snow Depth 0.00 cm    
Sea Level Pressure  
Sea Level Pressure 1015 hPa    
Wind  
Wind Speed 11 km/h (SW)    
Max Wind Speed 39 km/h    
Max Gust Speed 47 km/h    
Visibility 16 kilometers    
Events      
T = Trace of Precipitation, MM = Missing Value Source: NWS Daily Summary

Daily Weather History Graph

Daily Weather History Graph

Search for Another Location

Airport:

Trip Planner

Search our weather history database for the weather conditions in past years. The results will help you decide how hot, cold, wet, or windy it might be!

Date:

Astronomy

Nov. 07, 2012 Rise Set
Actual Time 6:19 AM PST 4:53 PM PST
Civil Twilight 5:53 AM PST 5:19 PM PST
Nautical Twilight 5:23 AM PST 5:49 PM PST
Astronomical Twilight 4:53 AM PST 6:19 PM PST
Moon No Moon Rise 12:50 PM PST (11/7)
Length of Visible Light 11h 26m
Length of Day
10h 33m
Last Quarter, 42% of the Moon is Illuminated
Nov 7
Last Quarter
Nov 13
New
Nov 20
First Quarter
Nov 28
Full
Dec 6
Last Quarter

Hourly Weather History & Observations

Time (PST) Temp. Dew Point Humidity Pressure Visibility Wind Dir Wind Speed Gust Speed Precip Events Conditions
12:56 AM 11.7 °C -2.8 °C 37% 1017.7 hPa 16.1 km Calm Calm - N/A   Clear
1:56 AM 10.0 °C -2.8 °C 41% 1017.4 hPa 16.1 km Calm Calm - N/A   Clear
2:56 AM 10.0 °C -3.3 °C 39% 1017.0 hPa 16.1 km Calm Calm - N/A   Clear
3:56 AM 8.9 °C -1.7 °C 48% 1016.8 hPa 16.1 km Calm Calm - N/A   Clear
4:56 AM 6.1 °C -6.1 °C 42% 1017.5 hPa 16.1 km Calm Calm - N/A   Clear
5:56 AM 5.6 °C -5.0 °C 47% 1018.0 hPa 16.1 km Calm Calm - N/A   Clear
6:56 AM 6.1 °C -6.1 °C 42% 1018.6 hPa 16.1 km Calm Calm - N/A   Clear
7:56 AM 11.1 °C -2.8 °C 38% 1018.6 hPa 16.1 km Calm Calm - N/A   Clear
8:56 AM 17.2 °C -0.6 °C 30% 1018.0 hPa 16.1 km Calm Calm - N/A   Clear
9:56 AM 23.3 °C -0.6 °C 21% 1017.2 hPa 16.1 km Calm Calm - N/A   Clear
10:56 AM 27.8 °C -2.2 °C 14% 1015.9 hPa 16.1 km SW 18.5 km/h / 5.1 m/s - N/A   Clear
11:56 AM 28.3 °C -2.8 °C 13% 1014.7 hPa 16.1 km SW 24.1 km/h / 6.7 m/s 33.3 km/h / 9.3 m/s N/A   Clear
12:56 PM 28.3 °C -2.8 °C 13% 1014.0 hPa 16.1 km SW 31.5 km/h / 8.7 m/s 40.7 km/h / 11.3 m/s N/A   Clear
1:56 PM 27.8 °C -1.1 °C 15% 1013.5 hPa 16.1 km SW 33.3 km/h / 9.3 m/s - N/A   Clear
2:56 PM 26.7 °C 0.6 °C 18% 1013.5 hPa 16.1 km SW 31.5 km/h / 8.7 m/s - N/A   Clear
3:56 PM 25.0 °C 2.8 °C 24% 1013.7 hPa 16.1 km WSW 31.5 km/h / 8.7 m/s 40.7 km/h / 11.3 m/s N/A   Clear
4:56 PM 21.7 °C 5.6 °C 35% 1014.3 hPa 16.1 km SW 16.7 km/h / 4.6 m/s - N/A   Clear
5:56 PM 19.4 °C 4.4 °C 37% 1014.7 hPa 16.1 km SSW 11.1 km/h / 3.1 m/s - N/A   Clear
6:56 PM 17.8 °C 6.1 °C 46% 1014.8 hPa 16.1 km WSW 14.8 km/h / 4.1 m/s - N/A   Clear
7:56 PM 17.2 °C 7.2 °C 52% 1014.6 hPa 16.1 km WSW 16.7 km/h / 4.6 m/s - N/A   Clear
8:56 PM 17.2 °C 5.6 °C 46% 1014.2 hPa 16.1 km SW 13.0 km/h / 3.6 m/s - N/A   Clear
9:56 PM 17.2 °C 2.8 °C 38% 1013.6 hPa 16.1 km WSW 13.0 km/h / 3.6 m/s - N/A   Clear
10:56 PM 17.2 °C 3.3 °C 40% 1012.9 hPa 16.1 km SW 11.1 km/h / 3.1 m/s - N/A   Clear
11:56 PM 17.2 °C 2.2 °C 37% 1012.4 hPa 16.1 km SW 18.5 km/h / 5.1 m/s - N/A   Clear